[[[{"header":{"parameterUnit":"kt","parameterCategory":2,"dx":1,"dy":1,"la1":30.253999710083008,"la2":30.299108505249023,"lo1":-89.0895004272461,"lo2":-89.04439544677734,"nx":28,"ny":28,"refTime":"2022-09-28T21:00:00:Z","depth":0,"parameterNumber":1,"parameterNumberName":"U-component_of_WINDS"},"data":[-3.4766,-3.4955,-3.4943,-3.5153,-3.5177,-3.5319,-3.5366,-3.5425,-3.5469,-3.5636,-3.573,-3.5737,-3.5776,-3.5886,-3.5987,-3.5988,-3.6035,-3.6109,-3.6099,-3.5773,-3.5727,-3.5684,-3.564,-3.6118,-3.6118,-3.6441,-3.6444,-3.6446,-3.4527,-3.4554,-3.466,-3.4757,-3.4848,-3.4768,-3.4838,-3.4921,-3.5049,-3.5104,-3.5196,-3.5343,-3.5456,-3.5471,-3.5579,-3.5667,-3.5638,-3.5698,-3.5695,-3.5703,-3.5352,-3.5306,-3.572,-3.572,-3.572,-3.572,-3.572,-3.572,-3.4089,-3.4203,-3.4254,-3.437,-3.4414,-3.4479,-3.4585,-3.4591,-3.4695,-3.4807,-3.4771,-3.4917,-3.497,-3.5095,-3.5133,-3.5247,-3.5179,-3.5242,-3.5259,-3.5277,-3.53,-3.4844,-3.5264,-3.5262,-3.5261,-3.526,-3.5259,0,-3.3767,-3.3749,-3.3851,-3.395,-3.4033,-3.4109,-3.4176,-3.4241,-3.4199,-3.4288,-3.4415,-3.4487,-3.4627,-3.4747,-3.4844,-3.4872,-3.4803,-3.4792,-3.4837,-3.4861,-3.4869,-3.4872,-3.4306,-3.4782,-3.4778,-3.4775,-3.4773,-3.4771,-3.333,-3.3462,-3.3509,-3.3582,-3.3616,-3.3734,-3.3803,-3.3756,-3.3831,-3.3907,-3.4009,-3.4126,-3.4219,-3.4425,-3.4432,-3.4538,-3.4507,-3.4691,-3.4523,-3.4538,-3.4517,-3.4512,-3.4527,-3.4727,-3.4733,-3.4737,-3.4741,0,-3.3085,-3.3065,-3.3266,-3.33,-3.3312,-3.3453,-3.3483,-3.3593,-3.3587,-3.3739,-3.3772,-3.3764,-3.389,-3.3867,-3.4006,-3.3991,-3.4227,-3.419,-3.4208,-3.4202,-3.4368,-3.4355,-3.4902,-3.4973,-3.4471,-3.4476,-3.4479,0,-3.2708,-3.2883,-3.2843,-3.2961,-3.3153,-3.3102,-3.3295,-3.3309,-3.3354,-3.3473,-3.3387,-3.3502,-3.3454,-3.3565,-3.3543,-3.373,-3.3754,-3.3756,-3.375,-3.3768,-3.3769,-3.3814,-3.3793,-3.3722,-3.372,-3.3717,-3.3715,0,-3.2333,-3.2515,-3.2704,-3.2743,-3.2798,-3.2889,-3.2916,-3.2965,-3.3034,-3.3117,-3.3161,-3.3262,-3.332,-3.3399,-3.3371,-3.3258,-3.3597,-3.3437,-3.36,-3.3602,-3.3682,-3.3679,-3.4162,-3.3711,-3.3711,-3.371,-3.3709,0,-3.2027,-3.2111,-3.2389,-3.2432,-3.2483,-3.2607,-3.2704,-3.2805,-3.2864,-3.2858,-3.2924,-3.2867,-3.3025,-3.2868,-3.3087,-3.2949,-3.301,-3.3024,-3.3036,-3.3055,-3.2882,-3.3165,-3.3622,-3.3672,-3.3064,-3.3058,-3.3053,0,-3.1606,-3.1879,-3.1838,-3.2103,-3.2227,-3.2124,-3.2261,-3.2316,-3.2319,-3.2425,-3.2427,-3.255,-3.2427,-3.2463,-3.2573,-3.2583,-3.2762,-3.2557,-3.2717,-3.2724,-3.2711,-3.3129,-3.3206,-3.3523,-3.2984,-3.2991,-3.2996,0,-3.1278,-3.1342,-3.1393,-3.1436,-3.1499,-3.1602,-3.1759,-3.1868,-3.1941,-3.2011,-3.2144,-3.2312,-3.2228,-3.2288,-3.2252,-3.2369,-3.2639,-3.2264,-3.2265,-3.2337,-3.2945,-3.3018,-3.3072,-3.259,-3.2598,-3.2605,-3.2941,0,-3.083,-3.0963,-3.1095,-3.1193,-3.1268,-3.1431,-3.1408,-3.1489,-3.1447,-3.1448,-3.1641,-3.1681,-3.1794,-3.1846,-3.1807,-3.2079,-3.2032,-3.1941,-3.1793,-3.2065,-3.2176,-3.2221,-3.1629,-3.1624,-3.1621,-3.1617,0,0,-3.0435,-3.0626,-3.0577,-3.0728,-3.0789,-3.0681,-3.0859,-3.0905,-3.1004,-3.105,-3.0964,-3.121,-3.1248,-3.1486,-3.1568,-3.1612,-3.1661,-3.1567,-3.1934,-3.197,-3.2002,-3.2121,-3.2168,-3.1611,-3.1609,-3.1608,-3.1607,0,-3.0268,-3.0304,-3.0479,-3.0525,-3.0591,-3.0582,-3.0624,-3.0672,-3.0681,-3.0868,-3.0781,-3.0893,-3.1091,-3.1144,-3.1196,-3.1535,-3.1466,-3.157,-3.1763,-3.1896,-3.1937,-3.1972,-3.2098,-3.2143,-3.1597,-3.1598,-3.1598,0,-2.9945,-2.9979,-3.006,-3.0192,-3.0235,-3.0365,-3.0201,-3.0344,-3.0441,-3.0319,-3.0508,-3.0528,-3.0596,-3.0822,-3.0923,-3.085,-3.129,-3.1145,-3.1169,-3.1182,-3.131,-3.1359,-3.1402,-3.0833,-3.083,-3.0828,0,0,-2.9805,-2.9928,-2.9951,-3.0154,-3.0187,-3.0178,-3.0244,-3.021,-3.0272,-3.0297,-3.0322,-3.0387,-3.0501,-3.0578,-3.0684,-3.0934,-3.0947,-3.1052,-3.1088,-3.1118,-3.1147,-3.1283,-3.1331,-3.0818,-3.0818,-3.0818,0,0,-2.9739,-2.9774,-2.972,-2.9952,-3.0013,-3.0052,-3.0178,-3.0114,-3.0207,-3.0186,-3.0137,-3.0152,-3.0362,-3.0387,-3.0259,-3.0632,-3.0484,-3.0514,-3.0609,-3.0655,-3.069,-3.0683,-3.0101,0,0,0,0,0,-2.9557,-2.9768,-2.9719,-2.9755,-2.9922,-3.0078,-3.0099,-3.0063,-2.9959,-3.0059,-3.007,-2.9989,-3.0308,-3.0193,-3.023,-3.0376,-3.0693,-3.0715,-3.0736,-3.0918,-3.0966,-3.1006,0,0,0,0,0,0,-2.9571,-2.9614,-2.9713,-2.9761,-2.9798,-3.007,-2.9886,-2.9882,-2.9947,-2.9929,-2.999,-2.9991,-2.9964,-3.0172,-3.0206,-3.0345,-3.0089,-3.0702,-3.0721,-3.0738,-3.0935,-3.0974,-3.1007,0,0,0,0,0,-2.9581,-2.9616,-2.9894,-2.9758,-2.9791,-2.9792,-2.9878,-2.9873,-2.9923,-2.9941,-2.994,-2.989,-2.9969,-2.9995,-3.0192,-3.033,-3.0066,-3.0078,-3.0714,-3.0729,-3.0742,-3.0954,0,0,0,0,0,0,-2.9589,-2.9613,-2.99,-2.9908,-2.9676,-2.9776,-2.979,-2.9866,-2.993,-2.9931,-2.9837,-2.9823,-2.9975,-2.9994,-3.0015,-3.0327,-3.0046,-3.0059,-3.0067,-3.0725,-3.0737,-3.0747,0,0,0,0,0,0,-2.9594,-2.9622,-2.9904,-2.9802,-2.9799,-2.9762,-2.9775,-2.9936,-2.9932,-2.9823,-2.9812,-2.983,-2.9945,-2.9995,-3.001,-3.0264,-3.0032,-3.0044,-3.0053,-3.0058,-3.0735,-3.0744,0,0,0,0,0,0,-2.9605,-2.9628,-2.98,-2.9797,-2.9794,-2.9887,-2.9904,-3.0078,-2.9843,-2.9822,-2.9821,-2.9811,-2.9948,-2.9962,-3.0008,-3.0256,-3.0262,-3.0032,-3.004,-3.0046,-3.005,0,0,0,0,0,0,0,-2.9614,-2.9466,-2.9849,-2.9793,-2.9789,-2.9987,-2.999,-2.9992,-2.9841,-2.9832,-2.9823,-2.9815,-2.9961,-2.9974,-2.9988,-3.0249,0,0,-3.0031,-3.0037,0,0,0,0,0,0,0,0,-2.9455,-2.9463,-2.9849,-2.9851,-2.9853,-2.9988,-2.999,-2.9992,-2.9839,-2.9832,-2.9825,-2.9819,-2.9964,-2.9975,-2.9986,0,0,0,0,0,0,0,0,0,0,0,0,0,0,0,-2.985,-2.9851,0,-2.9988,-2.999,-2.9991,-2.9838,-2.9832,-2.9827,-2.9821,-2.9967,-2.9976,-2.9986,0,0,0,0,0,0,0,0,0,0,0,0,0,0,0,0,0,0,0,0,0,0,0,0,0,0,0,0,0,0,0,0,0,0,0,0,0,0,0,0,0,0,0,0,0,0,0,0,0,0,0,0,0,0,0,0,0,0,0,0,0,0,0,0,0,0,0,0,0]}],[{"header":{"parameterUnit":"kt","parameterCategory":2,"dx":1,"dy":1,"la1":30.253999710083008,"la2":30.299108505249023,"lo1":-89.0895004272461,"lo2":-89.04439544677734,"nx":28,"ny":28,"refTime":"2022-09-28T21:00:00:Z","depth":0,"parameterNumber":2,"parameterNumberName":"V-component_of_WINDS"},"data":[-12.4922,-12.514,-12.5146,-12.5394,-12.544,-12.5609,-12.567,-12.5749,-12.5811,-12.6009,-12.6122,-12.6145,-12.6204,-12.6336,-12.6455,-12.6461,-12.651,-12.6584,-12.6578,-12.6248,-12.6202,-12.6159,-12.6108,-12.6596,-12.6597,-12.6917,-12.692,-12.6923,-12.4676,-12.4726,-12.4861,-12.4993,-12.5107,-12.5038,-12.5136,-12.5234,-12.5385,-12.5464,-12.5576,-12.5749,-12.5884,-12.5918,-12.6047,-12.6143,-12.6115,-12.6177,-12.6168,-12.6177,-12.5826,-12.5773,-12.6197,-12.6197,-12.6197,-12.6197,-12.6197,-12.6197,-12.423,-12.4362,-12.4446,-12.4591,-12.4659,-12.4746,-12.487,-12.4897,-12.5025,-12.5165,-12.5142,-12.5311,-12.5387,-12.5542,-12.5593,-12.5722,-12.5652,-12.5719,-12.5735,-12.5752,-12.5769,-12.5301,-12.5744,-12.5743,-12.5742,-12.5741,-12.574,0,-12.3904,-12.39,-12.4029,-12.4161,-12.4266,-12.4367,-12.4459,-12.4536,-12.4521,-12.4627,-12.478,-12.4867,-12.5038,-12.5178,-12.5298,-12.5337,-12.527,-12.5265,-12.531,-12.5322,-12.5318,-12.5319,-12.4743,-12.5251,-12.5247,-12.5244,-12.5241,-12.524,-12.3451,-12.3605,-12.3695,-12.3785,-12.3837,-12.3982,-12.4068,-12.4045,-12.4137,-12.4243,-12.4358,-12.45,-12.4612,-12.4851,-12.4875,-12.5,-12.4968,-12.5162,-12.4986,-12.4992,-12.4967,-12.4957,-12.497,-12.5195,-12.5201,-12.5206,-12.5209,0,-12.3195,-12.3202,-12.3441,-12.3513,-12.3536,-12.3697,-12.3755,-12.3884,-12.3894,-12.4071,-12.4111,-12.4126,-12.4274,-12.4267,-12.4434,-12.4424,-12.4679,-12.4647,-12.4652,-12.4644,-12.4814,-12.4797,-12.5374,-12.5446,-12.4943,-12.4948,-12.4952,0,-12.2809,-12.3012,-12.3009,-12.3148,-12.337,-12.3342,-12.3562,-12.3593,-12.366,-12.3799,-12.3726,-12.3857,-12.3827,-12.3956,-12.3943,-12.4151,-12.4183,-12.4186,-12.418,-12.4192,-12.4191,-12.4235,-12.421,-12.4163,-12.416,-12.4158,-12.4156,0,-12.2405,-12.2642,-12.2868,-12.2922,-12.3018,-12.3124,-12.3168,-12.3243,-12.3327,-12.3434,-12.3487,-12.3614,-12.3683,-12.378,-12.3762,-12.3643,-12.4017,-12.3849,-12.402,-12.402,-12.4101,-12.4095,-12.4611,-12.4152,-12.4151,-12.415,-12.4149,0,-12.2093,-12.2208,-12.2536,-12.2613,-12.2675,-12.2824,-12.2948,-12.3073,-12.3157,-12.3159,-12.3243,-12.3192,-12.3376,-12.321,-12.3461,-12.3311,-12.3381,-12.3402,-12.3414,-12.3427,-12.3241,-12.3529,-12.4023,-12.4073,-12.3442,-12.3436,-12.3431,0,-12.1626,-12.1959,-12.1938,-12.2249,-12.2401,-12.2308,-12.2471,-12.2549,-12.2566,-12.2694,-12.271,-12.2856,-12.2731,-12.2775,-12.2901,-12.2922,-12.3117,-12.2896,-12.3072,-12.3079,-12.3051,-12.3506,-12.358,-12.3916,-12.3356,-12.3364,-12.3369,0,-12.1265,-12.1384,-12.1442,-12.1501,-12.1603,-12.173,-12.1918,-12.2058,-12.2144,-12.2241,-12.2394,-12.26,-12.2512,-12.2587,-12.2558,-12.2689,-12.2984,-12.2577,-12.2578,-12.2648,-12.3318,-12.3387,-12.3444,-12.2934,-12.2944,-12.2951,-12.331,0,-12.0787,-12.0955,-12.1111,-12.1249,-12.1346,-12.1541,-12.1538,-12.1639,-12.1603,-12.1616,-12.1843,-12.1904,-12.2043,-12.2107,-12.2072,-12.2377,-12.2323,-12.2229,-12.2064,-12.2365,-12.2482,-12.2531,-12.1889,-12.1884,-12.188,-12.1877,0,0,-12.0337,-12.0578,-12.0549,-12.0733,-12.0813,-12.0714,-12.0922,-12.0988,-12.1124,-12.1179,-12.1088,-12.1387,-12.1441,-12.1716,-12.1809,-12.1867,-12.1919,-12.1815,-12.2222,-12.2261,-12.2297,-12.2423,-12.2474,-12.1869,-12.1868,-12.1866,-12.1865,0,-12.0161,-12.0226,-12.0435,-12.0503,-12.0602,-12.0607,-12.0658,-12.0737,-12.0755,-12.098,-12.0891,-12.1026,-12.1268,-12.1334,-12.14,-12.1782,-12.1705,-12.1825,-12.2033,-12.2181,-12.2226,-12.2264,-12.2397,-12.2446,-12.1855,-12.1856,-12.1856,0,-11.9802,-11.9864,-11.9965,-12.0147,-12.021,-12.037,-12.0197,-12.0374,-12.049,-12.0368,-12.0592,-12.0625,-12.0714,-12.0978,-12.1095,-12.1015,-12.1511,-12.1355,-12.138,-12.1392,-12.1536,-12.1589,-12.1636,-12.1013,-12.101,-12.1007,0,0,-11.965,-11.9808,-11.9865,-12.0109,-12.0155,-12.0166,-12.025,-12.0223,-12.0308,-12.0343,-12.0384,-12.0467,-12.0605,-12.0698,-12.0828,-12.1118,-12.1132,-12.1251,-12.1291,-12.1323,-12.1353,-12.1505,-12.1558,-12.0996,-12.0996,-12.0996,0,0,-11.9576,-11.9654,-11.9603,-11.9886,-11.9973,-12.0042,-12.019,-12.0127,-12.0245,-12.0222,-12.018,-12.02,-12.0446,-12.0482,-12.0336,-12.0768,-12.0605,-12.064,-12.0736,-12.0786,-12.0825,-12.081,-12.0164,0,0,0,0,0,-11.9395,-11.9644,-11.9597,-11.9644,-11.9872,-12.0069,-12.0097,-12.0071,-11.9956,-12.0073,-12.0097,-12.001,-12.0394,-12.0264,-12.0309,-12.0471,-12.0855,-12.088,-12.0904,-12.1096,-12.1148,-12.1192,0,0,0,0,0,0,-11.9413,-11.9471,-11.959,-11.9672,-11.9722,-12.006,-11.9859,-11.9859,-11.9943,-11.9923,-12.0009,-12.0013,-11.9991,-12.0239,-12.028,-12.0434,-12.015,-12.0865,-12.0886,-12.0905,-12.1113,-12.1156,-12.1193,0,0,0,0,0,-11.9428,-11.9474,-11.9848,-11.9668,-11.9712,-11.9736,-11.9849,-11.9847,-11.9912,-11.9949,-11.9951,-11.9884,-11.9997,-12.0029,-12.0263,-12.0416,-12.0122,-12.0137,-12.0879,-12.0896,-12.0911,-12.1134,0,0,0,0,0,0,-11.9438,-11.9472,-11.9856,-11.9868,-11.9572,-11.9716,-11.9738,-11.9838,-11.9931,-11.9936,-11.9821,-11.9805,-12.0004,-12.0027,-12.0053,-12.0412,-12.0098,-12.0114,-12.0124,-12.0892,-12.0905,-12.0916,0,0,0,0,0,0,-11.9447,-11.9484,-11.9862,-11.9743,-11.9742,-11.9699,-11.9719,-11.9913,-11.9934,-11.9798,-11.9787,-11.9813,-11.9963,-12.0028,-12.0047,-12.0351,-12.008,-12.0095,-12.0106,-12.0112,-12.0902,-12.0913,0,0,0,0,0,0,-11.9462,-11.9493,-11.974,-11.9739,-11.9737,-11.9872,-11.9869,-12.0103,-11.9836,-11.9795,-11.9811,-11.9799,-11.9966,-11.9985,-12.0044,-12.034,-12.0349,-12.0081,-12.0091,-12.0098,-12.0103,0,0,0,0,0,0,0,-11.9474,-11.9271,-11.9784,-11.9735,-11.9733,-11.9982,-11.9985,-11.9988,-11.9834,-11.9824,-11.9814,-11.9804,-11.9994,-12.0011,-12.0028,-12.0331,0,0,-12.0079,-12.0087,0,0,0,0,0,0,0,0,-11.9257,-11.9268,-11.9784,-11.9787,-11.9789,-11.9982,-11.9985,-11.9987,-11.9832,-11.9824,-11.9816,-11.9808,-11.9999,-12.0012,-12.0026,0,0,0,0,0,0,0,0,0,0,0,0,0,0,0,-11.9784,-11.9786,0,-11.9982,-11.9985,-11.9987,-11.9831,-11.9824,-11.9817,-11.9811,-12.0003,-12.0014,-12.0025,0,0,0,0,0,0,0,0,0,0,0,0,0,0,0,0,0,0,0,0,0,0,0,0,0,0,0,0,0,0,0,0,0,0,0,0,0,0,0,0,0,0,0,0,0,0,0,0,0,0,0,0,0,0,0,0,0,0,0,0,0,0,0,0,0,0,0,0,0]}]]]